ATLAS 5 CENTAUR R/B, 41867

Orbit data source: Space-Track

ATLAS 5 CENTAUR R/B, 41867 is space debris in HEO originally from a launch on Sat, 19 Nov 2016 UTC launched from the Air Force Eastern Test Range (AFETR). Debris objects in space refer to the collection of defunct objects orbiting the Earth. Examples of debris include non-operational satellites, rocket bodies, and fragments generated from explosions, collisions, or faulty payload assembly.

Loading next visibility...
Identifier
41867, 2016-071B
Orbit
HEO
Country
Flag of USUS
Related business
Flag of USUnited Launch Alliance/Lockheed Martin (US)
Manufacturer
ULA Decatur
Mission
Spacecraft
Bus & Motor
CENTAUR SEC, RL10C-1
Mass
~2,020 kg wet, 2,020 kg dry
Launch date (UTC)
2016-11-19 (10 years ago)
Launch vehicle
Unknown
Launch site
Air Force Eastern Test Range (AFETR)
Object type
Payload
Rocket body
Debris
Shape & HBR
Cyl + 1 Nozzle, 5.8 m
Radar Cross Section
32.260 m², Large (>1 m²)

Expand to show TLE details & history
Last TLE update: 1 day ago

TLE from 1 day ago
0 ATLAS 5 CENTAUR R/B
1 41867U 16071B   26163.21829891 -.00000061  00000-0  00000-0 0  9997
2 41867  10.8638 253.6540 4954331 166.6410 213.9597  1.89346344 66125
Epoch: 2026-06-12T05:14Z
TLE epoch observation values (Epoch: 2026-06-12T05:14:21.025Z)
Latitude
Longitude
-85.44234°
Altitude
33,847.66 km
Speed
2.319 km/s
True Right ascension
16h 54m 47s
True Declination
0° 00' 00"
Sunlit
Object was in daylight at epoch
Visualization orbit readout
Latitude
Unknown
Longitude
Unknown
Altitude
Unknown
Speed
Unknown
Apparent Right ascension
Unknown
Apparent Declination
Unknown
Sunlit
N/A
Visualization observer readout
Local Sidereal Time
19:17:17
Azimuth
Unknown
Elevation
Unknown
Doppler factor
Unknown
Orbital elements
Apogee altitude
34,898.162 km
Perigee altitude
7,548.701 km
Semi-major axis
27,601.568 km
Eccentricity
0.49543
Inclination
10.8638°
RAAN
253.654°
Arg. of periapsis
166.641°
True anomaly
193.4258°
Mean anomaly
213.9597°
Eccentric anomaly
202.90957°
Mean motion
0.47331 °/min
Orbital period
760.61 mins
BSTAR
0
Loading maneuver chart data...
Computing Atmospheric mass density...
Loading historical data...
Loading historical data...
Loading historical data...
Loading historical data...
Loading historical data...
Loading historical data...
Loading historical data...
Other satellites on launch #71 in the year 2016 (2016-11-19 UTC)

Documentation

Showing up to 5 results
|